[[[{"header":{"parameterUnit":"kt","parameterCategory":2,"dx":1,"dy":1,"la1":30.253999710083008,"la2":30.299108505249023,"lo1":-89.0895004272461,"lo2":-89.04439544677734,"nx":28,"ny":28,"refTime":"2022-10-25T21:00:00:Z","depth":0,"parameterNumber":1,"parameterNumberName":"U-component_of_WINDS"},"data":[-2.999,-3.0051,-3.0004,-3.0054,-3.0019,-3.0046,-3.004,-3.0029,-3.0007,-3.0035,-3.0043,-3.0003,-2.9964,-2.9964,-2.9972,-2.9954,-2.9963,-3.002,-2.999,-2.9772,-2.9739,-2.9707,-2.9689,-3.0022,-3.0022,-3.0224,-3.0226,-3.0228,-2.984,-2.9806,-2.9817,-2.9795,-2.9805,-2.9721,-2.9698,-2.9713,-2.9739,-2.9713,-2.9717,-2.9738,-2.9749,-2.9689,-2.9692,-2.9723,-2.9685,-2.9728,-2.9727,-2.9723,-2.9486,-2.9468,-2.9759,-2.9759,-2.9759,-2.9759,-2.9759,-2.9759,-2.9554,-2.9592,-2.955,-2.9561,-2.9536,-2.9523,-2.9552,-2.9499,-2.951,-2.9505,-2.9444,-2.9474,-2.9439,-2.9418,-2.94,-2.9423,-2.9367,-2.94,-2.9408,-2.9419,-2.9439,-2.9161,-2.9421,-2.942,-2.9419,-2.9418,-2.9417,0,-2.933,-2.9287,-2.9292,-2.9285,-2.929,-2.9279,-2.9261,-2.9278,-2.9169,-2.9183,-2.9199,-2.9201,-2.9205,-2.9217,-2.9208,-2.918,-2.9097,-2.9081,-2.9104,-2.9137,-2.9167,-2.9156,-2.8777,-2.9075,-2.9072,-2.9069,-2.9068,-2.9066,-2.9041,-2.9089,-2.902,-2.9031,-2.9008,-2.9027,-2.9029,-2.8928,-2.8935,-2.8899,-2.8939,-2.8947,-2.8949,-2.8985,-2.8924,-2.8927,-2.8887,-2.9007,-2.8887,-2.8916,-2.8893,-2.8893,-2.8899,-2.9033,-2.9037,-2.9041,-2.9044,0,-2.8884,-2.8801,-2.886,-2.8785,-2.8768,-2.8825,-2.8762,-2.8796,-2.874,-2.878,-2.8783,-2.8696,-2.8714,-2.8631,-2.8636,-2.8593,-2.8693,-2.8651,-2.8705,-2.8694,-2.8796,-2.8789,-2.9132,-2.9173,-2.8823,-2.8826,-2.8829,0,-2.8606,-2.8674,-2.8547,-2.8585,-2.8658,-2.8553,-2.8628,-2.8586,-2.855,-2.8581,-2.8469,-2.85,-2.8388,-2.8409,-2.8345,-2.8411,-2.841,-2.8383,-2.8366,-2.8395,-2.8399,-2.84,-2.8386,-2.832,-2.8318,-2.8317,-2.8315,0,-2.8372,-2.838,-2.8441,-2.843,-2.8356,-2.8388,-2.8359,-2.8317,-2.832,-2.8309,-2.831,-2.8306,-2.8305,-2.8305,-2.8224,-2.8146,-2.8301,-2.8177,-2.8273,-2.8276,-2.8314,-2.8313,-2.8634,-2.8313,-2.8313,-2.8312,-2.8311,0,-2.8135,-2.8123,-2.8223,-2.8159,-2.8165,-2.8206,-2.8193,-2.8208,-2.8172,-2.8133,-2.8124,-2.804,-2.8086,-2.7971,-2.8036,-2.7958,-2.7965,-2.7941,-2.7946,-2.7948,-2.7822,-2.8019,-2.8329,-2.8361,-2.7948,-2.7945,-2.7942,0,-2.7891,-2.7968,-2.7876,-2.7974,-2.7998,-2.7869,-2.7912,-2.7882,-2.7833,-2.7848,-2.7794,-2.7812,-2.7708,-2.7702,-2.7744,-2.7691,-2.7792,-2.7674,-2.7704,-2.7707,-2.7721,-2.8005,-2.8074,-2.827,-2.7902,-2.7906,-2.7909,0,-2.7691,-2.7596,-2.762,-2.7603,-2.7543,-2.7562,-2.7611,-2.7603,-2.7619,-2.7596,-2.7636,-2.7657,-2.758,-2.7571,-2.7501,-2.7551,-2.7721,-2.7461,-2.7459,-2.7514,-2.7873,-2.7938,-2.7972,-2.7663,-2.7668,-2.7672,-2.7877,0,-2.7359,-2.7384,-2.7443,-2.7406,-2.7406,-2.746,-2.7367,-2.738,-2.7312,-2.7258,-2.7314,-2.7266,-2.7261,-2.7274,-2.7207,-2.7344,-2.7309,-2.7226,-2.7109,-2.7295,-2.7361,-2.7387,-2.7019,-2.7015,-2.7011,-2.7009,0,0,-2.7149,-2.7182,-2.7078,-2.7119,-2.7113,-2.6977,-2.7044,-2.7022,-2.6982,-2.6982,-2.6915,-2.6939,-2.6904,-2.6982,-2.7033,-2.7029,-2.7047,-2.6984,-2.7206,-2.7229,-2.7249,-2.7321,-2.735,-2.7003,-2.7001,-2.7,-2.6999,0,-2.7008,-2.6969,-2.7034,-2.7006,-2.696,-2.6898,-2.6914,-2.6845,-2.6814,-2.6865,-2.6754,-2.6776,-2.6797,-2.6775,-2.6767,-2.6971,-2.6888,-2.6976,-2.7119,-2.7175,-2.7202,-2.7226,-2.7302,-2.7331,-2.6991,-2.6992,-2.6992,0,-2.6796,-2.6744,-2.6764,-2.674,-2.6708,-2.6735,-2.6588,-2.6622,-2.6641,-2.6491,-2.6545,-2.6507,-2.6468,-2.6552,-2.6587,-2.6527,-2.675,-2.6661,-2.668,-2.6683,-2.6733,-2.6765,-2.6794,-2.6415,-2.6413,-2.6412,0,0,-2.6688,-2.6709,-2.662,-2.6702,-2.669,-2.6598,-2.6602,-2.6533,-2.6499,-2.6486,-2.6434,-2.6406,-2.6417,-2.6427,-2.6432,-2.6536,-2.6522,-2.6594,-2.6621,-2.6644,-2.6659,-2.6715,-2.6747,-2.6406,-2.6406,-2.6405,0,0,-2.6636,-2.6535,-2.6471,-2.6554,-2.6524,-2.6443,-2.6499,-2.6418,-2.6412,-2.6396,-2.6283,-2.627,-2.6347,-2.6313,-2.6241,-2.6389,-2.6274,-2.6289,-2.6408,-2.6441,-2.6468,-2.6476,-2.6086,0,0,0,0,0,-2.6443,-2.6547,-2.649,-2.6489,-2.6458,-2.6475,-2.6471,-2.6378,-2.6299,-2.6345,-2.6289,-2.6197,-2.6252,-2.6186,-2.6188,-2.627,-2.6326,-2.634,-2.6354,-2.6531,-2.6567,-2.6596,0,0,0,0,0,0,-2.6442,-2.6441,-2.6487,-2.6412,-2.6403,-2.647,-2.6317,-2.6294,-2.6292,-2.6274,-2.6211,-2.6195,-2.6118,-2.6178,-2.6182,-2.6261,-2.6084,-2.6332,-2.6344,-2.6355,-2.6543,-2.6572,-2.6597,0,0,0,0,0,-2.644,-2.644,-2.6413,-2.6409,-2.6403,-2.6305,-2.6312,-2.6292,-2.6289,-2.6201,-2.6182,-2.6219,-2.6123,-2.612,-2.618,-2.6262,-2.6081,-2.6083,-2.634,-2.6349,-2.6357,-2.6557,0,0,0,0,0,0,-2.6439,-2.6423,-2.6409,-2.6404,-2.6362,-2.6299,-2.6286,-2.6291,-2.6214,-2.6197,-2.6203,-2.619,-2.6128,-2.6124,-2.6122,-2.6267,-2.6078,-2.608,-2.6081,-2.6347,-2.6354,-2.6361,0,0,0,0,0,0,-2.6422,-2.6419,-2.6406,-2.6352,-2.6339,-2.6295,-2.6283,-2.632,-2.6215,-2.622,-2.6206,-2.6198,-2.6131,-2.6128,-2.6126,-2.6188,-2.6076,-2.6078,-2.6079,-2.608,-2.6353,-2.6359,0,0,0,0,0,0,-2.6419,-2.6417,-2.6352,-2.6343,-2.6331,-2.6263,-2.6325,-2.6299,-2.6166,-2.6226,-2.6152,-2.6145,-2.6138,-2.6133,-2.6129,-2.6192,-2.6189,-2.6077,-2.6078,-2.6079,-2.6079,0,0,0,0,0,0,0,-2.6417,-2.6457,-2.6442,-2.6336,-2.6325,-2.6353,-2.6352,-2.635,-2.6165,-2.6159,-2.6153,-2.6148,-2.6067,-2.6069,-2.607,-2.6196,0,0,-2.6076,-2.6077,0,0,0,0,0,0,0,0,-2.6456,-2.6456,-2.6441,-2.644,-2.6439,-2.6353,-2.6352,-2.635,-2.6164,-2.6159,-2.6155,-2.615,-2.6067,-2.6069,-2.607,0,0,0,0,0,0,0,0,0,0,0,0,0,0,0,-2.6441,-2.644,0,-2.6353,-2.6352,-2.6351,-2.6163,-2.6159,-2.6156,-2.6152,-2.6068,-2.6069,-2.607,0,0,0,0,0,0,0,0,0,0,0,0,0,0,0,0,0,0,0,0,0,0,0,0,0,0,0,0,0,0,0,0,0,0,0,0,0,0,0,0,0,0,0,0,0,0,0,0,0,0,0,0,0,0,0,0,0,0,0,0,0,0,0,0,0,0,0,0,0]}],[{"header":{"parameterUnit":"kt","parameterCategory":2,"dx":1,"dy":1,"la1":30.253999710083008,"la2":30.299108505249023,"lo1":-89.0895004272461,"lo2":-89.04439544677734,"nx":28,"ny":28,"refTime":"2022-10-25T21:00:00:Z","depth":0,"parameterNumber":2,"parameterNumberName":"V-component_of_WINDS"},"data":[-0.1346,-0.1405,-0.1414,-0.1485,-0.1504,-0.1555,-0.1576,-0.1605,-0.1629,-0.1691,-0.1729,-0.1744,-0.1773,-0.1821,-0.1863,-0.1869,-0.1887,-0.1901,-0.1907,-0.1834,-0.1825,-0.1816,-0.1804,-0.1904,-0.1904,-0.1982,-0.1983,-0.1984,-0.1292,-0.1312,-0.1351,-0.1396,-0.1431,-0.1422,-0.1457,-0.1488,-0.1533,-0.1564,-0.1601,-0.1657,-0.1702,-0.1727,-0.1773,-0.1802,-0.1802,-0.1814,-0.1814,-0.182,-0.1741,-0.1728,-0.1813,-0.1813,-0.1813,-0.1813,-0.1813,-0.1813,-0.1196,-0.123,-0.1263,-0.1306,-0.1331,-0.1361,-0.1396,-0.1414,-0.1453,-0.1501,-0.1504,-0.1557,-0.159,-0.165,-0.1673,-0.1715,-0.1704,-0.1721,-0.1726,-0.1731,-0.1736,-0.1626,-0.1723,-0.1722,-0.1722,-0.1722,-0.1722,0,-0.1129,-0.1134,-0.1173,-0.1215,-0.1247,-0.128,-0.1312,-0.1334,-0.1349,-0.1381,-0.1429,-0.1458,-0.1517,-0.1564,-0.1609,-0.163,-0.1628,-0.1627,-0.164,-0.1641,-0.1636,-0.1643,-0.1518,-0.1625,-0.1625,-0.1624,-0.1624,-0.1623,-0.1036,-0.1074,-0.1112,-0.1138,-0.1158,-0.12,-0.1227,-0.1237,-0.1266,-0.1308,-0.1338,-0.1385,-0.1423,-0.1499,-0.1522,-0.1566,-0.1567,-0.1607,-0.1574,-0.1572,-0.1572,-0.1571,-0.1576,-0.1615,-0.1616,-0.1617,-0.1618,0,-0.0983,-0.0998,-0.106,-0.1094,-0.1104,-0.1144,-0.1174,-0.121,-0.1223,-0.1274,-0.1287,-0.131,-0.1357,-0.1373,-0.1431,-0.1438,-0.1508,-0.1505,-0.1496,-0.1498,-0.1538,-0.1536,-0.1661,-0.1679,-0.1571,-0.1572,-0.1573,0,-0.0911,-0.0961,-0.0981,-0.1016,-0.1072,-0.1082,-0.1137,-0.1155,-0.1184,-0.1224,-0.1222,-0.126,-0.1274,-0.1315,-0.1326,-0.1385,-0.1395,-0.1406,-0.1409,-0.1408,-0.1407,-0.1427,-0.1424,-0.141,-0.1409,-0.1409,-0.1408,0,-0.083,-0.0898,-0.0955,-0.0974,-0.1016,-0.1043,-0.1062,-0.1095,-0.1122,-0.1159,-0.1177,-0.1219,-0.1244,-0.1277,-0.1292,-0.1269,-0.1363,-0.1335,-0.1375,-0.1374,-0.1398,-0.1397,-0.15,-0.1407,-0.1407,-0.1407,-0.1407,0,-0.0776,-0.0812,-0.0892,-0.0928,-0.0946,-0.0983,-0.1026,-0.1062,-0.1097,-0.1106,-0.1135,-0.1138,-0.1188,-0.1159,-0.1231,-0.1197,-0.1221,-0.1235,-0.1238,-0.1248,-0.1216,-0.1276,-0.1369,-0.1381,-0.1251,-0.125,-0.1249,0,-0.068,-0.0765,-0.0774,-0.085,-0.0892,-0.0888,-0.093,-0.0961,-0.0976,-0.1015,-0.1032,-0.1077,-0.1058,-0.1075,-0.1107,-0.1128,-0.1172,-0.1122,-0.1182,-0.1184,-0.1176,-0.1261,-0.1273,-0.1345,-0.1232,-0.1234,-0.1235,0,-0.0609,-0.066,-0.0673,-0.0695,-0.0736,-0.0771,-0.0818,-0.0864,-0.0889,-0.0923,-0.0965,-0.1026,-0.1016,-0.1043,-0.105,-0.1083,-0.1143,-0.1068,-0.1069,-0.1083,-0.1224,-0.1235,-0.1247,-0.114,-0.1142,-0.1144,-0.1222,0,-0.0529,-0.0573,-0.0608,-0.0655,-0.0684,-0.0732,-0.075,-0.0778,-0.0781,-0.0798,-0.0858,-0.0889,-0.0937,-0.0953,-0.0957,-0.1027,-0.1019,-0.1008,-0.0984,-0.1038,-0.1065,-0.1075,-0.0942,-0.0942,-0.0941,-0.0941,0,0,-0.0436,-0.05,-0.0509,-0.0555,-0.0581,-0.0577,-0.0628,-0.0652,-0.0702,-0.0721,-0.0706,-0.0798,-0.0824,-0.0897,-0.0914,-0.0933,-0.0948,-0.0929,-0.1011,-0.1019,-0.1026,-0.1054,-0.1065,-0.094,-0.094,-0.094,-0.0939,0,-0.0412,-0.0435,-0.0483,-0.0509,-0.0547,-0.0562,-0.0573,-0.0611,-0.0624,-0.0683,-0.0681,-0.072,-0.0793,-0.0821,-0.0845,-0.0919,-0.0918,-0.0932,-0.0967,-0.1005,-0.1013,-0.1021,-0.105,-0.106,-0.0938,-0.0938,-0.0938,0,-0.0347,-0.0374,-0.0399,-0.0455,-0.0481,-0.0524,-0.0502,-0.0547,-0.058,-0.0576,-0.0636,-0.0655,-0.0694,-0.076,-0.079,-0.0778,-0.0889,-0.0857,-0.086,-0.0865,-0.0904,-0.0914,-0.0923,-0.0806,-0.0805,-0.0805,0,0,-0.0324,-0.0364,-0.0398,-0.0452,-0.0467,-0.049,-0.0514,-0.0521,-0.0555,-0.0569,-0.0595,-0.0629,-0.0672,-0.07,-0.0741,-0.0809,-0.082,-0.084,-0.0846,-0.0851,-0.0859,-0.0898,-0.0908,-0.0803,-0.0803,-0.0803,0,0,-0.0313,-0.0354,-0.0351,-0.0416,-0.0448,-0.0486,-0.0518,-0.0517,-0.0555,-0.0552,-0.0567,-0.0576,-0.0638,-0.0658,-0.0628,-0.0733,-0.0709,-0.0716,-0.0719,-0.0727,-0.0733,-0.0729,-0.0612,0,0,0,0,0,-0.0298,-0.0349,-0.0346,-0.0359,-0.0431,-0.0486,-0.0496,-0.0508,-0.0491,-0.0517,-0.0538,-0.0534,-0.0645,-0.0619,-0.0633,-0.0667,-0.0776,-0.0781,-0.0786,-0.0805,-0.0813,-0.082,0,0,0,0,0,0,-0.0303,-0.032,-0.0344,-0.0384,-0.04,-0.0485,-0.0458,-0.0463,-0.0488,-0.0487,-0.053,-0.0535,-0.0548,-0.0613,-0.0625,-0.0657,-0.0608,-0.0778,-0.0782,-0.0786,-0.0808,-0.0815,-0.0821,0,0,0,0,0,-0.0308,-0.0321,-0.0433,-0.0383,-0.0398,-0.0426,-0.0456,-0.046,-0.048,-0.0514,-0.0519,-0.0487,-0.0548,-0.056,-0.062,-0.0651,-0.06,-0.0604,-0.0781,-0.0784,-0.0787,-0.0811,0,0,0,0,0,0,-0.0311,-0.0325,-0.0437,-0.0441,-0.0365,-0.0422,-0.0431,-0.0457,-0.0506,-0.0512,-0.0472,-0.047,-0.0549,-0.0558,-0.0567,-0.0648,-0.0593,-0.0598,-0.06,-0.0783,-0.0786,-0.0788,0,0,0,0,0,0,-0.0318,-0.0329,-0.0439,-0.0415,-0.0418,-0.0418,-0.0426,-0.0479,-0.0507,-0.0461,-0.0461,-0.047,-0.0537,-0.0557,-0.0564,-0.0646,-0.0588,-0.0592,-0.0595,-0.0597,-0.0785,-0.0787,0,0,0,0,0,0,-0.0323,-0.0333,-0.0414,-0.0416,-0.0418,-0.0473,-0.0465,-0.0539,-0.0485,-0.0459,-0.048,-0.0478,-0.0536,-0.0543,-0.0562,-0.0641,-0.0645,-0.0588,-0.0591,-0.0593,-0.0594,0,0,0,0,0,0,0,-0.0327,-0.026,-0.0408,-0.0417,-0.0418,-0.0486,-0.0488,-0.0489,-0.0484,-0.0482,-0.0481,-0.0479,-0.0562,-0.0567,-0.0572,-0.0638,0,0,-0.0587,-0.0589,0,0,0,0,0,0,0,0,-0.0256,-0.0259,-0.0408,-0.0409,-0.041,-0.0486,-0.0488,-0.0489,-0.0484,-0.0483,-0.0481,-0.048,-0.0564,-0.0568,-0.0572,0,0,0,0,0,0,0,0,0,0,0,0,0,0,0,-0.0408,-0.0409,0,-0.0487,-0.0487,-0.0488,-0.0484,-0.0483,-0.0481,-0.048,-0.0565,-0.0568,-0.0571,0,0,0,0,0,0,0,0,0,0,0,0,0,0,0,0,0,0,0,0,0,0,0,0,0,0,0,0,0,0,0,0,0,0,0,0,0,0,0,0,0,0,0,0,0,0,0,0,0,0,0,0,0,0,0,0,0,0,0,0,0,0,0,0,0,0,0,0,0]}]]]